Home   Weather   Groton   Past weeks
Flag for USA

Past Weather in Groton, Connecticut, USA — Yesterday and Last 2 Weeks

Now
54 °F

Mostly cloudy.


Feels Like: 49 °F
Forecast: 56 / 51 °F
Wind: 21 mph from West

Location: Groton / New London Airport

Current Time: Oct 17, 2019 at 9:40:35 am

Latest Report: Oct 17, 2019 at 8:56 am


Visibility: 10 mi

Pressure: 29.16 "Hg

Humidity: 64%

Dew Point: 42 °F

Location of GrotonLocation

Past Weather in Groton — Graph

°F

Groton Temperature Yesterday

Maximum temperature yesterday: 63 °F (at 11:51 pm)
Minimum temperature yesterday: 39 °F (at 4:56 am)
Average temperature yesterday: 55 °F

High & Low Weather Summary for the Past Weeks

 TemperatureHumidityPressure
High86 °F (Oct 2, 1:56 pm)97% (Oct 16, 9:44 pm)30.45 "Hg (Oct 16, 9:44 pm)
Low39 °F (Oct 5, 6:56 am)34% (Oct 15, 1:56 pm)28.90 "Hg (Oct 17, 2:37 am)
Average58 °F74%30.04 "Hg
* Reported Oct 2 7:56 am — Oct 17 7:56 am, Groton. Weather by CustomWeather, © 2019

Note: Actual official high and low records may vary slightly from our data, if they occured in-between our weather recording intervals... More about our weather records

Advertising

Groton Weather History for the Previous 24 Hours

Scroll right to see more
 ConditionsComfort  
Time TempWeatherWind HumidityBarometerVisibility
7:56 am
Thu, Oct 17
53 °FPartly sunny.24 mph66%29.14 "Hg10 mi
6:56 am51 °FClear.25 mph77%29.11 "Hg10 mi
5:56 am51 °FPassing clouds.17 mph77%29.08 "Hg10 mi
4:56 am51 °FPassing clouds.22 mph83%29.04 "Hg10 mi
3:56 am53 °FOvercast.20 mph86%29.01 "Hg10 mi
3:03 am55 °FOvercast.20 mphN/A28.95 "Hg10 mi
2:37 am61 °FLight rain. Partly cloudy.9 mphN/A28.90 "Hg3 mi
2:09 am61 °FPassing clouds.13 mphN/A28.92 "Hg10 mi
1:14 am63 °FLight rain. Low clouds.15 mphN/A28.99 "Hg4 mi
1:06 am63 °FLight rain. Mostly cloudy.14 mphN/A29.01 "Hg2 mi
12:56 am63 °FRain. Low clouds.18 mphN/A29.02 "Hg3 mi
12:39 am63 °FThundershowers. Overcast.26 mphN/A29.04 "Hg2 mi
12:10 am64 °FThundershowers. Fog.38 mph94%29.04 "Hg2 mi
11:51 pm
Wed, Oct 16
63 °FLight rain. Fog.13 mph93%29.07 "Hg3 mi
11:33 pm61 °FHeavy rain. Fog.20 mph93%29.09 "Hg1 mi
10:56 pm61 °FHeavy rain. Fog.10 mph93%29.21 "Hg2 mi
10:36 pm60 °FHeavy rain. Fog.17 mph93%29.24 "Hg3 mi
10:08 pm60 °FHeavy rain. Fog.22 mph90%29.28 "Hg3 mi
9:56 pm60 °FHeavy rain. Fog.23 mph90%29.31 "Hg2 mi
9:44 pm58 °FHeavy rain. Fog.21 mph97%29.33 "Hg1 mi
9:27 pm59 °FHeavy rain. Fog.31 mph90%29.36 "Hg1 mi
9:20 pm59 °FHeavy rain. Fog.26 mph90%29.37 "Hg2 mi
9:05 pm59 °FHeavy rain. Fog.28 mph87%29.39 "Hg3 mi
7:56 pm60 °FRain. Fog.25 mph86%29.51 "Hg6 mi
6:56 pm59 °FRain. Fog.17 mph90%29.59 "Hg5 mi
5:56 pm60 °FCloudy.17 mph83%29.64 "Hg10 mi
4:56 pm60 °FOvercast.17 mph83%29.71 "Hg10 mi
4:43 pm60 °FCloudy.18 mph83%29.72 "Hg10 mi
3:56 pm60 °FOvercast.21 mph80%29.76 "Hg10 mi
3:40 pm60 °FMostly cloudy.17 mph78%29.78 "Hg10 mi
3:26 pm60 °FMore clouds than sun.16 mph78%29.79 "Hg10 mi
3:07 pm60 °FPartly sunny.18 mph78%29.80 "Hg10 mi
1:56 pm60 °FScattered clouds.17 mph75%29.86 "Hg10 mi
12:56 pm61 °FPassing clouds.15 mph72%29.90 "Hg10 mi
11:56 am62 °FPassing clouds.16 mph73%29.92 "Hg10 mi
10:56 am61 °FPassing clouds.15 mph75%29.96 "Hg10 mi
9:56 am60 °FPassing clouds.14 mph69%29.97 "Hg10 mi
Weather by CustomWeather, © 2019

See weather overview